Area code 762 scam numbers list

Do you receive unwanted calls with the area code 762 and don’t know how to stop them? The best way to defeat an enemy is to find out who he or she is! Find the phone number in our database and check the name, mobile network provider and other information of the caller.

State: Georgia

Number Format: (762) xxx-xxxx

International Number Format: +1 762 xxxxxxx

Major city: Augusta

Time Zone: EST (UTC-05:00 ) / EDT (UTC-04:00 )

This info will give you a great advantage, as you can simply send a complaint to the scammer’s network provider. Basically, you can do anything you like with the information we share.

Don’t let 762 area code scams attack you and your family! They have no right for it. Take advantage of the opportunities our free phone number search provides you to stop unsolicited calls.


Number Call type Rating Last Update
762-204-0237 Scam -5 2020-05-26 02:41:16
762-591-6842 Positive 5 2020-02-24 13:12:12
762-224-3495 unknown 0 2019-09-08 23:34:14
762-225-1308 unknown 0 2019-09-06 09:44:39
762-354-4689 Spam -5 2019-08-22 13:08:58
762-236-1160 scam -5 2019-04-20 08:43:59
762-585-7979 Unknown -10 2019-03-13 00:35:32
762-208-6637 Harassment -4 2019-03-01 08:52:08
762-435-4327 Spam -3 2019-02-22 14:05:39
762-019-5734 unknown -10 2019-02-03 07:44:06
762-499-9947 unknown 0 2019-01-05 12:03:12
762-236-9304 telemarketer -5 2019-01-01 11:22:12
762-223-2384 scam -5 2018-12-21 08:35:16
762-212-5655 scam -5 2018-11-13 08:06:09
762-223-2461 spam -5 2018-10-29 14:52:00
762-212-5143 prank -2 2018-10-23 04:15:05
762-722-0009 unknown 0 2018-10-21 04:52:58
762-383-1815 unknown -5 2018-10-05 22:00:52
762-212-5740 unknown 0 2018-09-15 03:14:53
762-207-7617 unknown 0 2018-09-04 13:51:37
762-224-3528 unknown 0 2018-09-04 03:19:29
762-225-2011 unknown -1 2018-08-27 18:38:26
762-796-0427 harassment -5 2018-08-21 15:39:06
762-383-1630 Spam -2 2018-08-17 19:42:14
762-499-9949 unknown -5 2018-08-11 18:05:42
762-233-7837 Spam -5 2018-08-05 16:10:53
762-208-4256 Harassment -7 2018-08-04 16:02:11
762-221-3113 scam -10 2018-08-04 09:42:49
762-243-4003 Harassment -12 2018-08-04 04:37:59
762-208-4218 Harassment -5 2018-08-04 04:36:56
762-208-4249 Spam -10 2018-08-03 20:03:37
762-728-9026 Harassment -4 2018-08-03 18:01:08
762-208-2850 Harassment -3 2018-08-03 13:09:50
762-218-2974 Spam -5 2018-08-03 10:21:18
762-208-2078 Harassment -1 2018-08-02 23:08:36
762-208-4246 Harassment -3 2018-08-01 21:05:33
762-204-1684 Spam -5 2018-08-01 13:59:18
762-207-7171 Spam -5 2018-08-01 09:06:10
762-243-7799 Spam -2 2018-07-30 15:31:03
762-208-3363 Harassment -2 2018-07-30 15:04:22
762-359-7526 Harassment -1 2018-07-29 16:31:43
762-201-2697 unknown 2 2018-07-29 12:09:25
762-218-2751 Harassment -2 2018-07-28 18:04:31
762-208-3160 Spam -5 2018-07-27 15:36:48
762-793-4948 unknown 0 2018-07-27 11:35:21
762-208-3279 Spam -4 2018-07-27 09:12:00
762-728-9082 Harassment -6 2018-07-27 08:08:16
762-208-3706 Spam -3 2018-07-26 21:44:33
762-208-4286 Spam -7 2018-07-26 19:31:06
762-209-1781 Spam -2 2018-07-25 10:01:01
762-524-8404 Spam -1 2018-07-24 10:18:28
762-245-2041 Spam -16 2018-07-24 09:56:47
762-243-7057 Spam -24 2018-07-24 00:39:03
762-383-1845 Harassment -5 2018-07-22 19:24:59
762-728-8053 Spam -2 2018-07-22 09:57:39
762-208-7233 Spam -3 2018-07-22 04:36:36
762-208-4222 Spam -3 2018-07-21 22:17:01
762-323-8006 Spam -2 2018-07-21 17:17:49
762-323-7668 Spam -2 2018-07-21 14:11:54
762-204-4226 Spam -5 2018-07-21 03:59:01
762-435-8598 spam -5 2018-07-20 15:29:32
762-233-2476 Spam -44 2018-07-19 22:48:45
762-338-4689 Harassment -3 2018-07-19 05:58:26
762-323-6328 Harassment -12 2018-07-19 04:30:45
762-207-7438 Harassment -3 2018-07-18 19:56:53
762-215-2164 Spam -4 2018-07-18 11:37:45
762-202-6222 Spam -1 2018-07-18 08:52:38
762-208-0700 Spam -5 2018-07-15 09:31:13
762-236-1776 Harassment -3 2018-07-15 06:56:21
762-333-2758 Spam -51 2018-07-13 18:52:13
762-208-3345 Harassment -7 2018-07-13 18:18:10
762-359-2341 Harassment -2 2018-07-12 19:21:43
762-231-3059 Harassment -1 2018-07-12 16:04:40
762-208-3300 Spam -9 2018-07-12 12:02:11
762-208-2320 Spam -1 2018-07-11 22:27:39
762-323-0077 Harassment -2 2018-07-11 02:21:11
762-383-9265 Harassment -3 2018-07-10 16:50:34
762-208-4224 Harassment -1 2018-07-09 19:51:02
762-208-3202 Harassment -5 2018-07-08 20:11:02
762-208-3346 Harassment -3 2018-07-08 05:09:22
762-233-8476 Spam -4 2018-07-07 10:22:25
762-359-4559 Spam -9 2018-07-06 02:47:16
762-208-5029 Spam -1 2018-07-05 22:26:28
762-233-5567 Harassment -4 2018-07-05 20:14:51
762-208-4309 Spam -7 2018-07-05 14:10:51
762-359-2027 Spam -1 2018-07-04 06:44:51
762-338-6571 Harassment -5 2018-07-03 19:42:18
762-208-3267 Spam -4 2018-07-03 19:42:13
762-435-6775 Harassment -8 2018-07-03 11:22:50
762-572-0845 positive 0 2018-07-03 07:41:12
762-338-1343 Harassment -5 2018-07-03 01:52:48
762-215-8443 Spam -4 2018-07-02 13:32:20
762-333-2825 unknown 0 2018-07-01 22:49:12
762-243-7796 Harassment -4 2018-07-01 07:20:17
762-218-3703 Spam -1 2018-06-30 05:04:56
762-208-4241 Spam -3 2018-06-29 04:39:49
762-231-3929 Harassment -2 2018-06-29 03:36:54
762-359-0959 Harassment -2 2018-06-29 02:35:57
762-499-2972 Spam -8 2018-06-27 01:45:52
762-585-8395 Harassment -8 2018-06-26 16:58:57


Telephone numbers with the same dialing code



Recent comments

Anonymous, 2020-09-23 07:42:12

Number: (909) 305-6931

Call type: Unknown

Rating: 2

This caller calls my number and when I pick up the phone they hang up. When I call the number the recording says it is not correct to try again and check the number to make sure it is correct. Like I dialed it wrong.

Anonymous, 2020-09-22 09:33:38

Number: (315) 333-0942

Call type: Scam

Rating: 5

Said they were PayPal in order to process a payment within an email.

Joffre D. Meyer, 2020-09-22 08:19:09

Number: (318) 425-7157

Call type: Scam

Rating: -5

Someone allegedly named Luis Gonzalez called me from this alleged number, claiming that Social Security was charging me with money laundering! He provided his government number and my case number. When i asked him where in Texas, the incident supposedly happened, he gave up and hung up.

Joffre D. Meyer, 2020-09-23 03:33:00

Number: (318) 425-7157

Call type: Scam

Rating: 1

Joffre D. Meyer, They tried to call again yesterday, but I hung up. I talked with my bank, and the told me to call Social Security.

RJ, 2020-09-22 06:09:47

Number: (760) 190-8595

Call type: Scam

Rating: -5

MONOTONE SCAMMER Kate calling from the computer refund department..... this is about the 7th call from this b tch. Also same group calling with an unusual prefix of +7-2XXXXXXXX (X are variety of numbers, but always leading with the +7-2.

Anonymous, 2020-09-21 04:52:28

Number: (602) 902-1573

Call type: Scam

Rating: -5

Said they are going to charge $499 to my elderly mother's credit card for a prescription

Adam Capman, 2020-09-21 04:43:28

Number: (252) 321-0590

Call type: Scam

Rating: -5

Tells me it's Allison from Microsoft and they're going to cancel my account in 48 hours if I don't speak with them.

Shirley, 2020-09-20 16:20:20

Number: (217) 295-2513

Call type: Unknown

Rating: 0

They left a message saying they were going to charge my checking account and if I wanted to cancel press 1. I have caller ID and it said it was a scam before the phone 217-295-2513. I do answer these calls.

Craig Alicia, 2020-09-20 13:22:15

Number: (346) 203-2810

Call type: Scam

Rating: -5

Cyber harassment provides a sentence that would hope to entice you to click a random link that would steal your personal information ie phone number, address and other information criminals try to steal. It was a text from the number. I blocked it.

Anonymous, 2020-09-19 00:52:31

Number: (773) 981-9135

Call type: Scam

Rating: -4

Pretend to be rep from bank attempting to get info verified

Diana Wong, 2020-09-18 04:07:18

Number: (646) 853-0885

Call type: Unknown

Rating: -3

I received a text stating that Voicemail: Parcel Sorting Center: Found package addressed to Diana. Last day to receive is on Friday - have been receiving daily texts from different numbers since Wednesday.

2015-2020 Reverse phone lookup US © All Rights Reserved